SCP
0 -0 0 -0 -0 -0 -0 -0 0 0 0 0 0 0 0 0 0 0 0 0 0 0 0 -0 -0 -0 -0 -0 -0 -0 -0 -0 -0 -0 -0 0 0 0 0 -0 0 0 0 0 0 0 0 0 0
0 0 0 0 -0 -0 -0 -0 0 0 0 -0 0 0 0 0 0 0 0 0 0 0 0 -0 -0 -0 -0 -0 0 0 0 -0 -0 -0 0 0 0 -0 0 0 0 0 0 0 0 0 0 0 0
0 0 0 0 0 -0 0 0 0 0 0 0 0 0 0 0 0 0 0 0 0 0 0 0 -0 0 0 0 0 0 0 0 -0 -0 0 0 -0 0 0 0 0 -0 -0 -0 -0 -0 -0 0 0
0 0 0 0 0 0 -0 -0 -0 -0 0 0 0 -0 0 0 0 0 0 0 0 0 0 0 0 0 0 0 0 0 0 -0 0 -0 -0 -0 -0 -0 0 -0 -0 -0 -0 -0 -0 -0 -0 -0 0
0 0 0 0 0 0 0 -0 -0 -0 0 0 0 -0 -0 0 0 -0 -0 -0 -0 0 0 0 -0 -0 -0 -0 -0 -0 -0 -0 -0 -0 -0 -0 -0 -0 -0 -0 -0 -0 -0 -0 -0 -0 -0 -0 0
0 0 0 0 0 0 0 0 0 0 0 0 0 0 -0 0 0 -0 -0 -0 -0 -0 -0 0 -0 -0 -0 -0 -0 -0 -0 -0 -0 -0 -0 -0 -0 -0 -0 -0 -0 -0 -0 -0 -0 -0 -0 -0 0
0 0 0 0 0 0 0 0 0 0 0 0 0 0 0 -0 0 -0 -0 -0 -0 -0 0 0 -0 -0 -0 -0 -0 -0 -0 -0 -0 -0 -0 -0 -0 -0 -0 -0 -0 -0 -0 -0 -0 -0 -0 0 0
0 0 0 0 0 0 0 0 0 0 0 0 0 0 0 0 0 0 0 0 -0 -0 -0 -0 -0 -0 -0 -0 -0 -0 -0 -0 -0 -0 -0 -0 -0 -0 -0 -0 -0 -0 -0 -0 -0 -0 0 0 0
0 0 0 0 0 0 0 0 0 0 0 0 0 0 0 0 0 0 0 0 -0 0 -0 -0 -0 -0 -0 -0 -0 -0 -0 -0 -0 -0 -0 -0 -0 -0 -0 -0 -0 -0 -0 -0 0 0 0 0 0
0 0 0 0 0 0 0 0 0 0 0 0 0 0 0 0 0 0 0 0 -0 -0 0 0 -0 -0 -0 -0 -0 -0 -0 -0 -0 -0 -0 0 0 0 0 0 0 0 0 0 0 0 0 0 0
0 0 0 0 0 0 0 0 0 0 0 0 0 0 0 0 0 0 0 0 0 0 0 0 0 0 -0 -0 -0 0 0 0 0 -0 -0 0 0 0 0 0 0 0 0 0 0 0 0 0 0
0 0 0 0 0 0 0 0 0 0 0 0 0 0 0 0 0 0 0 0 0 0 0 0 0 0 0 0 0 0 0 0 0 0 -0 0 0 0 0 0 0 0 0 0 0 0 0 0 0
0 0 0 0 0 0 0 0 0 0 0 0 0 0 0 0 0 0 0 0 0 0 0 0 0 0 0 0 0 0 0 0 0 0 0 0 0 0 0 0 0 0 0 0 0 0 0 0 0
0 0 0 0 0 0 0 0 0 0 0 0 0 0 0 0 0 0 0 0 0 0 0 0 0 0 0 0 0 0 0 0 0 0 0 0 0 0 0 0 0 0 0 0 0 0 0 0 0
0 0 0 0 0 0 0 0 0 0 0 0 0 0 0 0 0 0 0 0 0 0 0 0 0 0 0 0 0 0 0 0 0 0 0 0 0 0 0 0 0 0 0 0 0 0 0 0 0
0 0 0 0 0 0 0 0 0 0 0 0 0 0 0 0 0 0 0 0 0 0 0 0 0 0 0 0 0 0 0 0 0 0 0 0 0 0 0 0 0 0 0 0 0 0 0 0 0
0 0 0 0 0 0 0 0 0 0 0 0 0 0 0 0 0 0 0 0 0 0 0 0 0 0 0 0 0 0 0 0 0 0 0 0 0 0 0 0 0 0 0 0 0 0 0 0 0
0 0 0 0 0 0 0 0 0 0 0 0 0 0 0 0 0 0 0 0 0 0 0 0 0 0 0 0 0 0 0 0 0 0 0 0 0 0 0 0 0 0 0 0 0 0 0 0 0
0 0 0 0 0 0 0 0 0 0 0 0 0 0 0 0 0 0 0 0 0 0 0 0 0 0 0 0 0 0 0 0 0 0 0 0 0 0 0 0 0 0 0 0 0 0 0 0 0
0 0 0 0 0 0 0 0 0 0 0 0 0 0 0 0 0 0 0 0 0 0 0 0 0 0 0 0 0 0 0 0 0 0 0 0 0 0 0 0 0 0 0 0 0 0 0 0 0
0 0 0 0 0 0 0 -0 -0 0 0 0 0 0 0 0 0 0 0 0 0 0 0 0 0 0 0 0 0 0 0 0 0 0 0 0 0 0 0 0 0 0 0 0 0 0 0 0 0
0 0 0 0 0 0 0 -0 -0 0 0 0 0 0 0 0 0 0 0 0 0 0 0 0 0 0 0 0 0 0 0 0 0 0 0 0 0 0 0 0 0 0 0 0 0 0 0 0 0
0 0 0 0 0 0 0 0 -0 -0 0 0 0 0 0 0 0 0 0 0 0 0 0 0 0 0 0 0 0 0 0 0 0 0 0 0 0 0 0 0 0 0 0 0 0 0 0 0 0
0 0 0 0 0 0 0 0 -0 0 -0 -0 0 0 0 0 0 0 0 0 0 0 0 0 0 0 0 0 0 0 0 0 0 0 0 0 0 0 0 0 0 0 0 0 0 0 0 0 0
0 0 0 0 0 0 0 0 0 0 0 -0 0 0 0 0 0 0 0 0 0 0 0 0 0 0 0 0 0 0 0 0 0 0 0 0 0 0 0 0 0 0 0 0 0 0 0 0 0
0 0 0 0 0 0 0 0 0 0 0 0 -0 0 0 0 0 0 0 0 0 0 0 0 0 0 0 0 0 0 0 0 0 0 0 0 0 0 0 0 0 0 0 0 0 0 0 0 0
0 0 0 0 0 0 0 0 0 0 0 0 0 0 0 0 -0 -0 0 0 0 0 0 0 0 0 0 0 0 0 0 0 0 0 0 0 0 0 0 0 0 0 0 0 0 0 0 0 0
0 0 0 0 0 0 0 0 0 0 0 0 0 0 0 0 0 0 0 0 0 0 0 0 0 0 0 0 0 0 0 0 0 0 0 0 0 0 0 0 0 0 0 0 0 0 0 0 0
0 0 0 0 0 0 0 0 0 0 0 0 0 0 0 0 0 0 0 0 0 0 0 0 0 0 0 0 0 0 0 0 0 0 0 0 0 0 0 0 0 0 0 0 0 0 0 0 0
0 0 0 0 0 0 0 0 0 0 0 0 0 0 -0 -0 -0 0 0 0 -0 -0 0 0 0 0 0 0 0 0 0 0 0 0 0 0 0 0 0 0 0 0 0 0 0 0 0 0 0
Wind_Speed_500mb
30 30 29 9 7 8 2 5 2 7 5 6 14 10 9 3 5 2 23 30 34 26 27 25 22 21 22 20 18 16 12 13 13 15 19 22 25 24 26 31 34 31 36 37 34 38 41 41 38
27 28 17 6 8 5 4 3 10 7 8 23 17 12 5 3 4 12 31 31 31 26 26 27 25 24 23 21 20 15 9 15 15 14 23 25 26 28 28 30 33 32 34 35 33 35 37 36 37
21 21 9 7 5 4 4 5 8 10 20 7 8 4 6 3 9 30 21 30 32 27 25 24 27 24 23 21 18 13 9 13 13 16 23 27 27 27 27 30 29 30 31 32 30 34 35 35 34
13 8 10 7 4 2 3 3 9 22 3 7 7 6 4 7 8 26 28 28 30 26 26 26 28 27 24 22 17 16 12 12 15 19 21 24 26 27 25 24 28 26 26 27 26 30 31 30 31
8 8 7 6 5 5 5 4 26 11 4 4 7 5 2 16 20 23 28 26 27 28 27 27 28 30 25 24 19 16 13 11 14 17 18 19 22 24 23 21 20 20 22 23 25 26 27 28 29
7 6 7 1 4 7 5 14 14 7 9 9 4 10 7 19 18 26 27 24 26 24 27 28 29 32 31 26 24 21 14 12 13 14 16 16 19 21 22 20 18 18 18 20 21 21 22 23 22
13 7 7 8 4 6 1 20 12 12 8 8 6 8 4 25 22 28 26 25 25 26 26 28 31 34 34 30 29 25 18 13 10 11 14 16 17 18 18 17 16 15 15 17 18 18 19 18 19
11 11 8 6 7 4 6 14 6 16 10 6 12 5 4 32 30 31 28 28 27 28 27 28 31 33 34 35 31 27 21 15 11 10 12 16 17 16 15 15 14 13 12 13 13 14 14 14 14
6 8 6 9 11 6 9 11 10 9 8 15 16 9 5 32 34 37 35 36 34 34 32 31 31 33 34 34 33 30 24 19 15 13 13 15 16 16 15 13 13 13 10 8 9 9 8 9 9
4 7 21 17 16 7 1 8 21 13 11 15 20 24 15 26 41 41 43 42 42 40 39 35 33 33 34 34 33 31 27 22 19 17 16 15 15 16 14 13 11 12 11 8 5 4 3 5 5
8 7 7 14 25 17 10 4 7 15 6 23 21 27 24 29 45 45 44 43 40 40 41 39 36 34 33 34 34 32 28 25 22 21 19 17 16 17 16 14 13 12 11 9 6 2 2 2 2
5 2 3 7 6 15 16 14 7 17 12 9 17 23 30 36 47 44 46 47 44 43 42 41 40 38 34 34 34 32 29 26 24 22 19 18 18 17 16 16 15 13 11 9 7 5 4 5 5
9 1 3 7 9 12 7 22 16 20 19 17 20 22 25 40 48 51 48 46 48 48 45 46 45 43 39 37 36 36 32 28 25 24 21 21 20 18 17 17 16 15 12 11 9 8 7 8 9
15 7 7 10 11 12 6 12 12 36 44 44 41 32 28 34 43 55 54 51 54 53 52 48 49 47 45 42 40 38 36 32 30 27 25 24 23 22 19 18 17 15 14 13 11 10 10 10 11
9 3 3 12 11 11 2 11 18 51 35 37 43 37 35 36 48 44 50 56 54 52 55 54 53 53 52 49 45 43 40 38 35 31 31 29 27 25 23 22 19 18 17 15 14 13 13 14 14
8 3 5 2 17 11 18 22 20 34 42 53 51 52 52 45 47 39 45 52 55 56 56 61 57 60 57 55 51 49 47 45 41 38 37 36 33 30 28 27 23 23 21 18 17 17 17 17 17
4 6 16 8 27 9 16 6 16 19 24 46 55 55 55 54 54 53 53 50 52 55 58 62 63 65 62 60 58 56 54 53 50 47 45 42 40 37 35 32 29 29 26 24 23 22 20 19 18
11 12 9 10 6 9 9 12 24 50 37 41 49 56 53 60 62 59 57 56 54 56 59 61 64 69 68 65 64 64 64 63 59 57 54 50 48 45 43 39 37 35 33 31 28 25 23 17 20
9 8 9 4 11 7 13 19 26 51 38 46 54 58 52 67 63 58 59 63 64 62 65 67 68 72 75 76 75 75 77 72 69 66 61 57 55 52 50 47 44 42 40 34 32 31 29 21 22
5 6 7 7 5 1 11 27 18 45 38 52 61 61 68 73 74 65 72 73 72 73 70 70 72 76 76 83 83 81 80 78 74 70 67 65 63 58 56 53 50 47 45 42 40 38 34 26 26
7 10 6 1 12 5 11 34 18 23 59 54 69 76 78 79 84 84 83 80 75 80 83 81 76 79 79 84 88 88 87 85 84 83 79 76 69 67 63 59 56 53 51 48 44 42 40 32 34
17 14 11 8 7 11 3 22 16 7 19 19 47 59 70 79 87 94 97 91 93 98 86 81 89 87 84 86 95 98 97 98 95 91 84 82 77 73 69 67 64 59 56 55 50 47 46 41 42
9 10 13 9 6 3 10 12 11 6 13 21 26 54 67 74 78 84 85 95 102 96 101 101 99 93 97 99 100 101 102 100 98 95 91 84 83 81 77 73 70 67 63 59 57 53 53 51 48
13 10 8 4 7 15 19 17 40 22 15 15 29 52 58 67 68 69 74 76 88 91 98 105 107 111 103 108 108 109 105 105 107 103 98 90 82 82 84 80 77 73 69 65 60 56 57 52 51
11 14 1 5 11 16 8 18 54 11 19 13 27 49 64 65 69 70 64 64 66 75 86 95 103 115 118 112 111 113 109 109 107 107 100 95 85 82 81 80 82 80 74 70 63 59 59 54 50
19 12 9 13 9 6 3 16 28 6 22 45 54 65 61 60 60 60 59 67 75 83 77 81 92 102 113 119 117 109 109 113 106 107 106 97 88 81 74 74 73 75 71 66 63 62 60 55 50
9 20 9 4 3 1 9 17 34 32 29 40 51 59 75 83 83 74 70 69 60 61 74 80 79 88 99 113 118 121 114 113 110 105 107 98 88 80 75 67 69 69 68 66 65 65 63 55 49
12 11 5 4 2 6 12 13 28 2 1 11 18 38 54 52 55 54 50 52 55 58 64 69 81 91 88 96 110 116 117 113 109 107 102 96 88 81 73 67 68 69 69 64 63 63 57 54 53
9 17 5 7 9 8 6 13 29 25 19 20 31 39 47 62 64 52 53 41 68 79 79 68 73 84 93 90 97 110 116 113 111 107 98 94 88 81 73 69 68 70 70 66 63 61 53 53 55
16 20 14 9 8 8 4 25 14 12 16 3 24 65 67 77 74 58 76 92 83 78 86 77 71 74 83 91 93 104 110 114 114 106 98 94 87 83 73 69 70 71 70 67 62 58 56 61 58
Wind_Direction_500mb
339 341 339 352 53 65 115 184 148 134 163 159 144 156 181 139 169 155 152 155 159 165 159 152 153 150 134 128 121 110 82 105 110 106 102 103 100 97 93 92 92 94 89 91 90 85 86 88 88
340 346 348 23 78 62 277 214 179 190 140 130 116 119 128 180 159 145 150 154 153 162 165 156 156 155 146 137 132 125 100 96 94 102 109 109 104 101 98 98 101 95 94 94 93 87 88 88 85
345 346 17 78 91 132 204 206 174 143 135 151 124 126 146 188 172 154 153 159 155 164 166 167 157 160 154 150 145 143 131 104 92 105 113 116 110 104 99 103 102 98 95 98 92 87 86 87 90
359 12 58 69 17 341 251 184 160 145 261 174 157 106 156 181 173 162 158 161 159 167 169 174 164 165 166 159 152 149 135 113 106 105 111 108 107 105 101 102 109 105 102 97 94 89 86 90 91
14 66 54 68 321 278 262 203 156 145 151 169 176 184 185 147 154 163 165 165 166 168 172 173 173 171 171 167 165 154 145 122 107 107 115 112 109 104 103 105 108 108 103 100 94 92 91 90 89
74 59 65 118 287 290 281 172 161 162 152 169 208 152 161 169 157 169 168 168 166 171 172 173 179 178 177 176 168 162 162 130 118 114 117 120 116 113 112 112 114 112 109 99 96 94 93 91 85
119 91 167 156 268 317 89 156 168 181 169 217 181 142 213 174 165 167 170 173 174 171 177 179 180 181 180 180 177 176 174 163 147 132 130 133 124 120 116 117 120 119 109 104 105 101 97 89 84
132 96 132 199 194 219 149 178 203 187 204 208 188 213 233 187 175 175 180 183 183 180 181 186 184 187 187 185 186 187 186 187 178 166 152 148 140 136 129 126 123 117 111 115 113 102 93 85 83
153 84 175 203 160 213 174 173 177 183 177 189 205 228 220 189 187 186 190 194 192 191 189 190 192 192 195 194 190 193 196 200 200 188 169 160 158 152 148 139 135 125 124 124 113 108 99 88 78
83 145 203 181 176 181 117 224 168 163 181 220 233 227 231 197 202 203 204 205 201 198 196 196 199 200 199 200 200 200 203 204 202 193 184 180 175 172 162 153 146 141 151 144 144 133 96 68 64
137 201 307 204 163 157 148 193 207 162 195 222 229 236 232 209 208 216 220 220 218 209 204 203 202 206 206 205 205 206 206 203 198 196 193 189 188 182 175 169 166 172 172 172 186 238 319 345 1
173 108 111 344 269 175 177 170 193 215 238 204 229 249 242 229 219 224 228 224 220 219 216 209 208 208 207 204 207 207 206 204 203 203 198 193 192 190 186 185 184 190 189 198 212 231 261 285 302
157 235 58 293 289 308 271 220 207 227 237 235 273 241 236 238 237 231 232 233 227 225 224 219 215 212 209 209 208 209 209 210 209 209 204 201 194 196 199 199 200 202 205 215 226 236 254 265 280
166 195 281 276 269 264 281 305 193 252 250 249 261 247 235 239 241 235 236 235 231 227 228 226 223 221 216 216 216 216 215 214 215 214 212 210 205 205 207 209 210 210 218 228 240 250 260 271 281
139 287 319 215 234 236 206 281 229 256 254 238 238 247 241 237 235 240 252 244 240 236 231 228 229 227 226 221 222 222 221 221 222 219 219 218 217 215 215 216 214 218 225 232 243 253 266 275 281
108 74 241 178 165 231 168 254 251 274 250 250 247 243 243 242 241 245 247 249 248 243 236 235 229 233 231 231 228 228 227 226 227 226 225 224 223 224 221 224 223 228 233 238 248 257 262 273 281
216 175 224 284 196 152 190 258 247 273 244 255 257 250 243 240 241 242 246 247 249 246 243 241 235 236 235 234 234 234 234 233 232 231 230 230 228 228 230 229 229 234 238 243 247 254 262 273 275
184 214 253 216 210 203 214 249 273 274 268 262 274 265 259 247 243 246 248 251 248 246 243 242 240 239 238 238 238 238 236 236 234 233 233 232 233 232 232 232 233 237 239 245 251 257 260 265 272
137 166 201 225 255 250 232 242 244 264 259 264 266 262 265 258 252 252 248 248 246 245 242 241 240 238 236 236 235 236 237 237 236 235 234 234 235 235 236 235 235 239 243 248 251 252 252 249 265
153 207 212 252 323 223 295 275 232 263 256 248 256 261 262 263 265 258 251 245 246 246 244 242 242 242 239 237 239 240 241 241 241 241 239 237 236 236 238 240 240 241 245 245 248 252 253 247 258
197 230 165 311 332 265 313 285 228 237 248 244 250 258 262 262 263 262 257 253 250 245 244 244 243 245 243 241 240 239 242 243 242 240 240 238 238 239 239 241 243 243 246 247 250 252 252 247 250
236 182 196 256 320 259 1 283 242 231 269 234 243 251 258 259 259 261 261 258 252 250 251 251 248 246 245 242 240 240 240 242 243 242 243 241 240 240 240 242 244 245 246 248 249 250 249 243 242
222 149 167 178 210 347 237 280 281 186 264 272 243 254 257 259 264 267 267 262 258 255 252 251 249 250 246 243 241 242 241 245 247 248 247 245 243 242 242 242 244 246 247 248 249 248 246 242 243
150 104 62 141 166 243 220 206 269 245 237 241 240 247 257 269 273 276 278 275 269 265 260 254 250 248 248 246 243 241 242 242 242 244 246 246 244 243 242 242 243 246 247 247 247 248 246 243 246
197 132 122 225 210 242 209 184 253 295 282 236 268 278 277 277 276 278 277 277 277 270 266 261 254 248 246 245 245 243 242 243 244 246 245 246 245 243 241 240 242 243 244 245 245 244 243 237 240
191 189 174 202 205 271 46 226 250 220 251 256 261 269 274 279 291 296 278 284 290 284 276 269 261 254 248 247 245 247 245 243 243 245 246 245 245 245 245 244 243 241 241 242 243 244 242 238 235
183 215 176 355 298 327 220 281 290 264 250 257 262 268 278 284 298 285 298 310 309 296 284 276 268 261 255 251 247 247 247 244 241 243 246 244 244 245 244 243 241 239 238 238 238 239 238 234 235
148 155 115 202 221 241 255 255 248 160 65 304 273 264 285 302 309 303 302 324 335 324 302 289 276 266 263 256 249 248 246 245 242 240 243 243 242 243 241 240 237 235 234 234 234 235 234 232 240
171 213 186 138 181 207 275 253 241 249 225 239 267 284 315 318 327 306 311 327 332 333 333 313 286 275 264 258 252 248 247 245 241 240 242 241 240 240 238 236 234 232 231 232 230 233 228 235 238
210 216 173 168 221 240 260 270 200 251 240 165 332 325 320 320 319 320 314 316 324 335 334 324 306 286 272 263 258 252 248 246 242 240 239 238 237 238 235 233 231 230 229 227 226 228 239 240 244
Wind_Speed_850mb
30 30 29 9 7 8 2 5 2 7 5 6 14 10 9 3 5 2 23 30 34 26 27 25 22 21 22 20 18 16 12 13 13 15 19 22 25 24 26 31 34 31 36 37 34 38 41 41 38
27 28 17 6 8 5 4 3 10 7 8 23 17 12 5 3 4 12 31 31 31 26 26 27 25 24 23 21 20 15 9 15 15 14 23 25 26 28 28 30 33 32 34 35 33 35 37 36 37
21 21 9 7 5 4 4 5 8 10 20 7 8 4 6 3 9 30 21 30 32 27 25 24 27 24 23 21 18 13 9 13 13 16 23 27 27 27 27 30 29 30 31 32 30 34 35 35 34
13 8 10 7 4 2 3 3 9 22 3 7 7 6 4 7 8 26 28 28 30 26 26 26 28 27 24 22 17 16 12 12 15 19 21 24 26 27 25 24 28 26 26 27 26 30 31 30 31
8 8 7 6 5 5 5 4 26 11 4 4 7 5 2 16 20 23 28 26 27 28 27 27 28 30 25 24 19 16 13 11 14 17 18 19 22 24 23 21 20 20 22 23 25 26 27 28 29
7 6 7 1 4 7 5 14 14 7 9 9 4 10 7 19 18 26 27 24 26 24 27 28 29 32 31 26 24 21 14 12 13 14 16 16 19 21 22 20 18 18 18 20 21 21 22 23 22
13 7 7 8 4 6 1 20 12 12 8 8 6 8 4 25 22 28 26 25 25 26 26 28 31 34 34 30 29 25 18 13 10 11 14 16 17 18 18 17 16 15 15 17 18 18 19 18 19
11 11 8 6 7 4 6 14 6 16 10 6 12 5 4 32 30 31 28 28 27 28 27 28 31 33 34 35 31 27 21 15 11 10 12 16 17 16 15 15 14 13 12 13 13 14 14 14 14
6 8 6 9 11 6 9 11 10 9 8 15 16 9 5 32 34 37 35 36 34 34 32 31 31 33 34 34 33 30 24 19 15 13 13 15 16 16 15 13 13 13 10 8 9 9 8 9 9
4 7 21 17 16 7 1 8 21 13 11 15 20 24 15 26 41 41 43 42 42 40 39 35 33 33 34 34 33 31 27 22 19 17 16 15 15 16 14 13 11 12 11 8 5 4 3 5 5
8 7 7 14 25 17 10 4 7 15 6 23 21 27 24 29 45 45 44 43 40 40 41 39 36 34 33 34 34 32 28 25 22 21 19 17 16 17 16 14 13 12 11 9 6 2 2 2 2
5 2 3 7 6 15 16 14 7 17 12 9 17 23 30 36 47 44 46 47 44 43 42 41 40 38 34 34 34 32 29 26 24 22 19 18 18 17 16 16 15 13 11 9 7 5 4 5 5
9 1 3 7 9 12 7 22 16 20 19 17 20 22 25 40 48 51 48 46 48 48 45 46 45 43 39 37 36 36 32 28 25 24 21 21 20 18 17 17 16 15 12 11 9 8 7 8 9
15 7 7 10 11 12 6 12 12 36 44 44 41 32 28 34 43 55 54 51 54 53 52 48 49 47 45 42 40 38 36 32 30 27 25 24 23 22 19 18 17 15 14 13 11 10 10 10 11
9 3 3 12 11 11 2 11 18 51 35 37 43 37 35 36 48 44 50 56 54 52 55 54 53 53 52 49 45 43 40 38 35 31 31 29 27 25 23 22 19 18 17 15 14 13 13 14 14
8 3 5 2 17 11 18 22 20 34 42 53 51 52 52 45 47 39 45 52 55 56 56 61 57 60 57 55 51 49 47 45 41 38 37 36 33 30 28 27 23 23 21 18 17 17 17 17 17
4 6 16 8 27 9 16 6 16 19 24 46 55 55 55 54 54 53 53 50 52 55 58 62 63 65 62 60 58 56 54 53 50 47 45 42 40 37 35 32 29 29 26 24 23 22 20 19 18
11 12 9 10 6 9 9 12 24 50 37 41 49 56 53 60 62 59 57 56 54 56 59 61 64 69 68 65 64 64 64 63 59 57 54 50 48 45 43 39 37 35 33 31 28 25 23 17 20
9 8 9 4 11 7 13 19 26 51 38 46 54 58 52 67 63 58 59 63 64 62 65 67 68 72 75 76 75 75 77 72 69 66 61 57 55 52 50 47 44 42 40 34 32 31 29 21 22
5 6 7 7 5 1 11 27 18 45 38 52 61 61 68 73 74 65 72 73 72 73 70 70 72 76 76 83 83 81 80 78 74 70 67 65 63 58 56 53 50 47 45 42 40 38 34 26 26
7 10 6 1 12 5 11 34 18 23 59 54 69 76 78 79 84 84 83 80 75 80 83 81 76 79 79 84 88 88 87 85 84 83 79 76 69 67 63 59 56 53 51 48 44 42 40 32 34
17 14 11 8 7 11 3 22 16 7 19 19 47 59 70 79 87 94 97 91 93 98 86 81 89 87 84 86 95 98 97 98 95 91 84 82 77 73 69 67 64 59 56 55 50 47 46 41 42
9 10 13 9 6 3 10 12 11 6 13 21 26 54 67 74 78 84 85 95 102 96 101 101 99 93 97 99 100 101 102 100 98 95 91 84 83 81 77 73 70 67 63 59 57 53 53 51 48
13 10 8 4 7 15 19 17 40 22 15 15 29 52 58 67 68 69 74 76 88 91 98 105 107 111 103 108 108 109 105 105 107 103 98 90 82 82 84 80 77 73 69 65 60 56 57 52 51
11 14 1 5 11 16 8 18 54 11 19 13 27 49 64 65 69 70 64 64 66 75 86 95 103 115 118 112 111 113 109 109 107 107 100 95 85 82 81 80 82 80 74 70 63 59 59 54 50
19 12 9 13 9 6 3 16 28 6 22 45 54 65 61 60 60 60 59 67 75 83 77 81 92 102 113 119 117 109 109 113 106 107 106 97 88 81 74 74 73 75 71 66 63 62 60 55 50
9 20 9 4 3 1 9 17 34 32 29 40 51 59 75 83 83 74 70 69 60 61 74 80 79 88 99 113 118 121 114 113 110 105 107 98 88 80 75 67 69 69 68 66 65 65 63 55 49
12 11 5 4 2 6 12 13 28 2 1 11 18 38 54 52 55 54 50 52 55 58 64 69 81 91 88 96 110 116 117 113 109 107 102 96 88 81 73 67 68 69 69 64 63 63 57 54 53
9 17 5 7 9 8 6 13 29 25 19 20 31 39 47 62 64 52 53 41 68 79 79 68 73 84 93 90 97 110 116 113 111 107 98 94 88 81 73 69 68 70 70 66 63 61 53 53 55
16 20 14 9 8 8 4 25 14 12 16 3 24 65 67 77 74 58 76 92 83 78 86 77 71 74 83 91 93 104 110 114 114 106 98 94 87 83 73 69 70 71 70 67 62 58 56 61 58
Wind_Direction_850mb
339 341 339 352 53 65 115 184 148 134 163 159 144 156 181 139 169 155 152 155 159 165 159 152 153 150 134 128 121 110 82 105 110 106 102 103 100 97 93 92 92 94 89 91 90 85 86 88 88
340 346 348 23 78 62 277 214 179 190 140 130 116 119 128 180 159 145 150 154 153 162 165 156 156 155 146 137 132 125 100 96 94 102 109 109 104 101 98 98 101 95 94 94 93 87 88 88 85
345 346 17 78 91 132 204 206 174 143 135 151 124 126 146 188 172 154 153 159 155 164 166 167 157 160 154 150 145 143 131 104 92 105 113 116 110 104 99 103 102 98 95 98 92 87 86 87 90
359 12 58 69 17 341 251 184 160 145 261 174 157 106 156 181 173 162 158 161 159 167 169 174 164 165 166 159 152 149 135 113 106 105 111 108 107 105 101 102 109 105 102 97 94 89 86 90 91
14 66 54 68 321 278 262 203 156 145 151 169 176 184 185 147 154 163 165 165 166 168 172 173 173 171 171 167 165 154 145 122 107 107 115 112 109 104 103 105 108 108 103 100 94 92 91 90 89
74 59 65 118 287 290 281 172 161 162 152 169 208 152 161 169 157 169 168 168 166 171 172 173 179 178 177 176 168 162 162 130 118 114 117 120 116 113 112 112 114 112 109 99 96 94 93 91 85
119 91 167 156 268 317 89 156 168 181 169 217 181 142 213 174 165 167 170 173 174 171 177 179 180 181 180 180 177 176 174 163 147 132 130 133 124 120 116 117 120 119 109 104 105 101 97 89 84
132 96 132 199 194 219 149 178 203 187 204 208 188 213 233 187 175 175 180 183 183 180 181 186 184 187 187 185 186 187 186 187 178 166 152 148 140 136 129 126 123 117 111 115 113 102 93 85 83
153 84 175 203 160 213 174 173 177 183 177 189 205 228 220 189 187 186 190 194 192 191 189 190 192 192 195 194 190 193 196 200 200 188 169 160 158 152 148 139 135 125 124 124 113 108 99 88 78
83 145 203 181 176 181 117 224 168 163 181 220 233 227 231 197 202 203 204 205 201 198 196 196 199 200 199 200 200 200 203 204 202 193 184 180 175 172 162 153 146 141 151 144 144 133 96 68 64
137 201 307 204 163 157 148 193 207 162 195 222 229 236 232 209 208 216 220 220 218 209 204 203 202 206 206 205 205 206 206 203 198 196 193 189 188 182 175 169 166 172 172 172 186 238 319 345 1
173 108 111 344 269 175 177 170 193 215 238 204 229 249 242 229 219 224 228 224 220 219 216 209 208 208 207 204 207 207 206 204 203 203 198 193 192 190 186 185 184 190 189 198 212 231 261 285 302
157 235 58 293 289 308 271 220 207 227 237 235 273 241 236 238 237 231 232 233 227 225 224 219 215 212 209 209 208 209 209 210 209 209 204 201 194 196 199 199 200 202 205 215 226 236 254 265 280
166 195 281 276 269 264 281 305 193 252 250 249 261 247 235 239 241 235 236 235 231 227 228 226 223 221 216 216 216 216 215 214 215 214 212 210 205 205 207 209 210 210 218 228 240 250 260 271 281
139 287 319 215 234 236 206 281 229 256 254 238 238 247 241 237 235 240 252 244 240 236 231 228 229 227 226 221 222 222 221 221 222 219 219 218 217 215 215 216 214 218 225 232 243 253 266 275 281
108 74 241 178 165 231 168 254 251 274 250 250 247 243 243 242 241 245 247 249 248 243 236 235 229 233 231 231 228 228 227 226 227 226 225 224 223 224 221 224 223 228 233 238 248 257 262 273 281
216 175 224 284 196 152 190 258 247 273 244 255 257 250 243 240 241 242 246 247 249 246 243 241 235 236 235 234 234 234 234 233 232 231 230 230 228 228 230 229 229 234 238 243 247 254 262 273 275
184 214 253 216 210 203 214 249 273 274 268 262 274 265 259 247 243 246 248 251 248 246 243 242 240 239 238 238 238 238 236 236 234 233 233 232 233 232 232 232 233 237 239 245 251 257 260 265 272
137 166 201 225 255 250 232 242 244 264 259 264 266 262 265 258 252 252 248 248 246 245 242 241 240 238 236 236 235 236 237 237 236 235 234 234 235 235 236 235 235 239 243 248 251 252 252 249 265
153 207 212 252 323 223 295 275 232 263 256 248 256 261 262 263 265 258 251 245 246 246 244 242 242 242 239 237 239 240 241 241 241 241 239 237 236 236 238 240 240 241 245 245 248 252 253 247 258
197 230 165 311 332 265 313 285 228 237 248 244 250 258 262 262 263 262 257 253 250 245 244 244 243 245 243 241 240 239 242 243 242 240 240 238 238 239 239 241 243 243 246 247 250 252 252 247 250
236 182 196 256 320 259 1 283 242 231 269 234 243 251 258 259 259 261 261 258 252 250 251 251 248 246 245 242 240 240 240 242 243 242 243 241 240 240 240 242 244 245 246 248 249 250 249 243 242
222 149 167 178 210 347 237 280 281 186 264 272 243 254 257 259 264 267 267 262 258 255 252 251 249 250 246 243 241 242 241 245 247 248 247 245 243 242 242 242 244 246 247 248 249 248 246 242 243
150 104 62 141 166 243 220 206 269 245 237 241 240 247 257 269 273 276 278 275 269 265 260 254 250 248 248 246 243 241 242 242 242 244 246 246 244 243 242 242 243 246 247 247 247 248 246 243 246
197 132 122 225 210 242 209 184 253 295 282 236 268 278 277 277 276 278 277 277 277 270 266 261 254 248 246 245 245 243 242 243 244 246 245 246 245 243 241 240 242 243 244 245 245 244 243 237 240
191 189 174 202 205 271 46 226 250 220 251 256 261 269 274 279 291 296 278 284 290 284 276 269 261 254 248 247 245 247 245 243 243 245 246 245 245 245 245 244 243 241 241 242 243 244 242 238 235
183 215 176 355 298 327 220 281 290 264 250 257 262 268 278 284 298 285 298 310 309 296 284 276 268 261 255 251 247 247 247 244 241 243 246 244 244 245 244 243 241 239 238 238 238 239 238 234 235
148 155 115 202 221 241 255 255 248 160 65 304 273 264 285 302 309 303 302 324 335 324 302 289 276 266 263 256 249 248 246 245 242 240 243 243 242 243 241 240 237 235 234 234 234 235 234 232 240
171 213 186 138 181 207 275 253 241 249 225 239 267 284 315 318 327 306 311 327 332 333 333 313 286 275 264 258 252 248 247 245 241 240 242 241 240 240 238 236 234 232 231 232 230 233 228 235 238
210 216 173 168 221 240 260 270 200 251 240 165 332 325 320 320 319 320 314 316 324 335 334 324 306 286 272 263 258 252 248 246 242 240 239 238 237 238 235 233 231 230 229 227 226 228 239 240 244